Regional Weather Roundup
Issued by NWS

Home | Current Version | Previous Version | Text Only | Print | Product List | Glossary Off
Versions: 1 2 3 4 5 6 7 8 9 10 11 12 13 14 15 16 17 18 19 20 21 22 23 24 25 26 27 28 29 30 31 32 33 34 35 36 37 38 39 40 41 42 43 44 45 46 47 48 49 50

641
ASUS45 KCYS 050710
RWRWY

WYOMING REGIONAL WEATHER ROUNDUP
NATIONAL WEATHER SERVICE CHEYENNE WY
1200 AM MST FRI FEB 05 2016

NOTE:  "FAIR" INDICATES FEW OR NO CLOUDS BELOW 12,000 FEET
WITH NO SIGNIFICANT WEATHER AND/OR OBSTRUCTIONS TO VISIBILITY.

WYZ001-050800-
YELLOWSTONE NATIONAL PARK

CITY           SKY/WX    TMP DP  RH WIND       PRES   REMARKS
LK YELLOWSTONE   N/A      6   2  83 CALM      30.28R
W YELLOWSTONE  NOT AVBL

$$
WYZ002>013-054>058-071-098>099-050800-
NORTHERN WYOMING

CITY           SKY/WX    TMP DP  RH WIND       PRES   REMARKS
JACKSON        CLOUDY    18  14  86 N7        30.32S WCI   8
CODY           CLOUDY    30   9  40 W15       30.21R WCI  19
GREYBULL       MOCLDY    20  14  77 N5        30.27R WCI  13
WORLAND        MOCLDY    15  11  83 S3        30.25R
SHERIDAN       SNOW      30  27  88 NW17      30.20R WCI  18
BUFFALO        FLURRIES  27  24  89 N22G35    30.14R WCI  13
GILLETTE       CLOUDY    28  23  81 NW22G30   30.14R WCI  14
HULETT         CLOUDY    32  21  64 W8        30.11R WCI  25
NEWCASTLE      FAIR      23  18  80 CALM      30.14R

$$
WYZ014>020-022>026-101>103-050800-
CENTRAL WYOMING

CITY           SKY/WX    TMP DP  RH WIND       PRES   REMARKS
BIG PINEY      FAIR      13   6  74 NW3       30.29R
PINEDALE       FAIR      12   7  79 W14       30.27S WCI  -3
DUBOIS         PTSUNNY   19   9  63 W24       30.22S WCI   2
LANDER         FAIR      16   6  65 S3        30.22R
RIVERTON       FAIR      23   8  52 NW17      30.22R WCI   9
CASPER         CLOUDY    22  11  62 SW17      30.18R WCI   8
DOUGLAS        CLOUDY    23  13  65 NW9       30.17R WCI  13

$$
WYZ021-027>030-104>119-050800-
SOUTHERN WYOMING

CITY           SKY/WX    TMP DP  RH WIND       PRES   REMARKS
EVANSTON       LGT SNOW  19  15  84 W14       30.34S FOG     WCI   6
FORT BRIDGER   PTSUNNY   21  19  93 W21       30.35S WCI   6
ROCK SPRINGS   FAIR      16  12  84 W17       30.28R WCI   0
DIXON          LGT SNOW  20  16  82 SW12      30.30S WCI   8
RAWLINS        FAIR      16  11  80 W20G28    30.20R WCI  -1
SARATOGA       CLOUDY    19  14  79 W22       30.22R WCI   3
LARAMIE        FAIR      15   5  64 N3        30.15R
CHEYENNE       FAIR      23  12  62 NW13      30.12F WCI  11
TORRINGTON     FAIR      28  17  63 W12       30.15R WCI  18
PINE BLUFFS    CLOUDY    28  18  64 NW18      30.16S WCI  16

$$




USA.gov is the U.S. government's official web portal to all federal, state and local government web resources and services.